GFSNW_850_dewp_243.txt.gz
Dewpoint
-6 -2 -3 -2 -2 -2 -0 1 2 1 2 3 2 2 2 -1 -4 -6 -7 -8 -8 -8 -7 -6 -5 -1 2 -5 -5 -2 -1 1 4 1 -1 -3 -4 -0 1 7 7 6 6 4
-8 -3 -2 -2 -2 -1 1 1 1 2 2 3 2 2 2 -0 -3 -4 -4 -4 -7 -7 -6 -2 -4 -4 -5 -5 -2 -2 -1 2 6 4 1 -1 0 -2 0 2 5 6 9 6
-13 -10 -4 -3 -2 -1 1 1 1 2 3 1 2 3 2 1 -2 -3 -5 -5 -6 -5 -4 -5 -4 -5 -5 -4 -2 1 3 2 3 7 3 1 3 2 0 2 7 5 5 3
-14 -10 -6 -2 -2 -1 0 1 1 1 2 2 2 1 1 0 -0 -3 -4 -3 -3 -2 -0 -2 -3 -5 -5 -4 -2 2 4 5 2 -0 -1 -1 0 2 2 2 2 6 4 2
-13 -8 -3 -2 -2 -1 0 0 0 1 -2 -1 2 1 1 -0 -2 -3 -2 -2 -3 -3 -1 -2 -2 -4 -5 -4 -5 -2 1 8 5 4 -1 -2 0 -0 0 2 0 1 1 2
-6 -3 -3 -2 -2 -1 0 1 1 -0 -0 0 1 2 1 0 -3 -4 -5 -3 -2 -1 -2 -5 -6 -6 -6 -4 -1 2 5 4 8 9 2 0 4 1 -0 1 3 3 5 2
-4 -2 -1 -2 -1 -1 -0 1 0 1 1 1 1 -2 -1 -1 -1 -0 -4 -5 -2 -2 -5 -5 -5 -3 -2 -2 1 1 5 5 5 6 8 8 1 -2 -1 0 -1 -1 -1 -0
-2 -2 -2 -1 -1 -0 -1 -0 1 1 1 -0 -1 -2 -3 -4 -4 -0 -2 -4 -4 -1 -2 2 4 3 3 1 -2 -3 -3 4 5 6 7 6 0 -1 -0 -0 1 -1 -1 -2
-1 -1 -0 0 0 0 1 0 -0 1 1 2 -2 -2 -3 0 1 2 -0 -4 -4 -3 1 3 4 5 2 2 -4 -5 -3 3 4 5 6 7 4 -1 -4 -1 4 -1 -1 0
-0 -0 -0 0 1 1 1 1 1 1 -0 -1 -1 1 -0 -3 -1 2 1 -1 -1 -3 2 3 5 3 -4 1 0 2 2 6 5 6 6 5 -0 1 -2 4 6 1 0 1
1 0 0 1 1 1 1 2 2 1 -0 -1 -0 -1 -1 -2 -2 1 0 1 2 1 4 4 4 3 2 -0 -3 -2 1 3 4 4 5 6 -2 -0 7 1 -1 1 2 3
-0 0 1 1 1 2 2 2 2 2 1 -0 1 -0 -1 -2 -1 -1 -0 -0 -1 -1 1 3 1 3 1 1 3 -4 2 1 3 3 2 0 2 3 2 3 2 2 2 3
-0 0 0 0 1 1 2 2 2 1 -0 -0 2 1 0 -0 -1 -0 -0 1 -1 -1 -4 0 2 3 -2 3 2 -1 -3 -3 3 3 4 4 1 2 2 2 1 1 1 2
1 1 -0 -1 0 1 2 2 0 -0 0 1 1 0 0 0 0 -0 2 1 -0 -2 -1 3 3 3 -3 0 -3 -1 -2 -2 0 2 1 3 2 3 3 1 1 0 -1 -0
2 1 0 1 2 2 2 2 1 1 1 2 1 1 1 2 1 0 0 0 0 2 3 4 3 1 1 -0 -0 2 -2 -2 0 -0 -0 4 4 1 1 2 -1 -2 -3 -2
1 1 1 2 2 2 1 -0 -0 -0 1 1 2 1 2 2 -0 -1 0 2 1 1 2 2 -0 -1 1 2 1 -2 -6 -6 -5 -3 -4 -2 -1 4 3 1 -1 0 2 1
1 1 1 0 0 0 1 1 0 1 2 1 2 1 1 1 1 1 1 2 2 2 1 1 1 -1 -0 3 3 -3 -5 -6 -7 1 2 4 6 4 4 5 5 4 4 -1
1 1 1 1 1 1 1 1 1 1 1 1 3 2 1 0 0 0 0 0 0 0 1 1 1 -0 1 2 -2 -3 -3 -4 -4 -2 -1 -0 1 1 -0 0 0 -1 -2 -3
1 1 1 1 1 1 1 -0 -1 0 1 1 0 1 2 0 1 0 -1 -0 1 0 2 1 1 2 3 -0 -3 -3 -3 -3 -3 -3 0 1 3 4 3 2 0 -1 -2 -3
-0 0 -0 -1 -0 1 0 1 1 1 0 1 0 -2 2 0 0 1 2 -0 2 3 0 0 3 0 -3 -4 -4 -3 -0 -2 1 3 4 3 3 2 -1 -1 -2 -2 -2 -3
-1 -1 -2 -2 -1 0 -0 0 2 1 2 -0 -2 -2 -0 -0 0 1 -1 2 1 2 1 2 2 0 -2 -2 -3 -3 -0 1 2 2 2 3 2 -1 -2 -1 -2 -3 -4 -3
-1 -1 -2 -1 -1 -1 1 1 1 1 0 -1 -1 -0 0 -0 0 1 0 1 0 1 -0 2 1 -0 -4 -7 -6 -4 0 1 2 3 3 3 3 2 0 -3 -4 -4 -4 -3
-1 -1 -1 -1 -1 1 1 1 1 1 -2 -1 -0 1 -0 -0 0 1 -0 -0 0 -3 0 -1 0 -4 -7 -6 -3 -1 -3 -0 0 1 1 -1 -1 -3 -4 -4 -4 -3 -4 -5
-1 -0 0 1 1 -1 -4 -4 -2 -1 -2 -2 -1 0 0 -1 0 -1 0 -1 -2 1 1 0 -1 -5 -6 -5 -3 -3 -0 -1 -2 -2 -2 -2 -3 -3 -4 -4 -4 -5 -7 -7
-3 -3 0 -1 -3 -3 -2 -2 -3 -3 -2 -2 -1 -1 -2 -1 1 -2 -2 0 -0 -1 1 1 -3 -6 -5 -3 -2 -0 -1 -1 -2 -2 -2 -2 -3 -4 -4 -5 -8 -10 -10 -10
-5 -6 -3 -3 -3 -1 -2 -2 -2 -3 -3 -3 -3 -2 1 0 -0 0 -0 -0 -1 1 -1 -3 -4 -4 -3 -1 -1 -1 -2 -1 -2 -3 -3 -4 -5 -5 -3 -3 -4 -6 -10 -11
-6 -3 -3 -3 -3 -1 -2 -3 -2 -2 -2 -0 -3 -0 -2 -2 -1 -1 -2 -0 -1 -2 -3 -3 -3 -3 -1 -2 -2 -3 -2 -3 -2 -1 -1 -1 -1 -2 -4 -10 -10 -11 -11 -12

GFSNW_850_dewp_246.txt.gz
Dewpoint
-13 -12 -4 -3 -2 -2 -1 1 2 0 1 3 3 2 2 0 -2 -5 -4 -5 -6 -7 -9 -9 -9 -8 -9 -6 -2 1 1 4 5 6 1 -2 -1 1 1 4 7 7 9 6
-15 -14 -8 -3 -3 -2 1 1 1 -0 3 3 3 1 1 2 0 -2 -3 -4 -6 -6 -5 -4 -7 -8 -11 -9 -3 1 2 7 9 6 3 1 2 0 1 6 3 5 9 7
-13 -15 -15 -8 -3 -2 -0 1 1 1 2 2 1 2 2 3 -1 -1 -3 -3 -5 -4 -2 -4 -4 -6 -8 -8 -8 -8 1 6 8 9 6 4 4 2 0 4 8 5 5 4
-13 -15 -15 -15 -10 -2 -0 0 0 1 2 2 2 1 -0 1 1 -2 -2 -1 -1 -2 1 -1 -2 -6 -6 -7 -8 -5 -3 3 2 3 4 3 1 2 2 2 4 6 4 3
-13 -15 -14 -13 -8 -2 -1 -0 0 1 1 -1 1 1 1 1 -0 -2 -1 -0 -2 -2 -1 -1 0 -3 -4 -2 -5 -3 -2 2 3 5 3 2 4 3 -1 -1 2 2 2 2
-14 -14 -11 -6 -5 -2 -0 -1 0 1 -1 1 1 2 1 1 -2 -2 -3 -3 -2 -1 -2 -4 -4 -3 -3 -2 -0 2 2 3 4 6 1 5 5 2 3 -1 -2 2 5 3
-14 -9 -5 -4 -4 -3 -1 -0 0 1 1 1 1 -1 -1 -1 -2 -1 -4 -4 -2 -3 -4 -3 -2 -1 -2 -1 -1 0 4 5 4 5 3 6 -1 -3 1 2 -2 -3 -1 2
-6 -5 -4 -2 -3 -2 -1 -1 0 1 1 0 -1 -3 -2 -3 -3 -1 -1 -3 -4 -3 -2 2 4 4 3 1 -0 0 0 4 6 5 4 1 -2 -4 -3 0 2 -2 -1 -2
-6 -5 -4 -4 -2 -1 -0 -1 -1 0 1 0 -3 -2 -3 -1 0 1 -1 -2 -2 -2 2 4 4 3 2 2 -3 -2 -0 3 5 5 4 3 -3 -7 -9 -4 5 2 -1 -1
-13 -6 -5 -1 -0 -1 -0 0 -1 0 0 0 -1 -1 -1 -3 -2 1 1 -1 -1 -2 2 4 4 4 0 2 -0 1 0 3 3 3 4 1 -4 -6 -3 3 4 0 2 2
-7 -4 -0 0 1 1 0 0 0 0 0 -0 -0 -0 0 -1 -1 3 0 1 1 2 4 3 3 3 1 -0 -3 -1 1 0 2 5 5 5 -6 -7 -1 -1 -1 1 3 6
-6 -1 -0 -0 -0 1 1 1 1 1 1 0 0 -0 -1 -1 -2 -2 -0 1 -0 2 3 3 2 3 1 -1 1 -4 0 -1 2 1 1 -2 -4 -2 -1 0 3 4 6 6
-3 -1 0 1 0 1 1 1 1 1 2 -0 -0 1 1 -0 -1 -1 1 2 1 2 1 1 2 3 -1 3 1 -1 -3 -4 1 3 0 -2 -3 -4 -3 -2 -2 1 5 4
-3 0 1 1 0 1 1 2 2 2 0 0 1 -0 2 -1 -1 1 1 2 2 2 1 2 3 4 -1 0 -2 -2 -2 -3 -2 -1 -1 -3 -3 -3 -1 1 4 4 4 3
-3 1 1 1 0 0 1 1 1 2 1 1 1 1 -1 1 2 1 1 2 2 3 3 2 2 2 2 2 1 1 -3 -2 1 2 -1 -1 -2 -5 -5 0 -0 -1 2 4
-3 1 1 1 2 2 1 0 0 1 1 1 2 1 2 2 2 2 2 2 2 2 0 2 2 -0 2 4 1 -3 -5 -5 -5 -3 -5 -4 -4 -4 -4 -2 -0 1 1 2
-1 1 1 1 1 1 2 1 0 1 1 1 2 2 1 2 2 1 1 1 1 1 1 1 1 0 0 1 2 -2 -5 -5 -5 -6 -6 -4 -5 -2 1 3 1 3 4 1
-0 1 1 1 1 1 2 1 -0 0 0 3 2 2 1 1 1 1 1 0 0 0 1 1 1 0 2 2 -3 -4 -5 -6 -6 -5 -4 -3 -3 -3 -1 0 2 5 4 2
1 1 0 1 1 1 1 1 1 1 2 2 2 0 2 1 1 -0 0 0 2 1 1 0 -0 0 2 -3 -5 -5 -5 -5 -4 -4 -3 -3 -3 -2 -0 3 2 3 0 -0
-1 0 0 -0 0 1 1 1 2 2 1 1 1 1 2 0 0 1 1 0 1 2 0 -1 2 0 -3 -4 -4 -4 -4 -4 -4 -2 0 -2 -2 -2 1 3 3 2 1 -1
-1 -1 -1 -1 -0 1 0 0 1 1 1 -0 -1 -1 0 0 -0 0 -0 2 0 3 0 2 1 -0 -2 -2 0 -4 -4 -4 -2 -2 1 2 3 2 4 4 2 1 0 0
-1 -1 -1 -1 -1 -1 1 2 1 0 -1 -1 -0 1 0 0 1 1 1 1 0 -0 0 2 0 -1 -4 -5 -6 -4 -1 -1 0 1 3 4 3 3 2 2 0 -1 -0 -0
-1 -1 -1 -1 -1 1 1 1 0 2 1 0 1 2 0 1 1 2 2 1 -0 -3 1 -1 -0 -2 -5 -6 -4 -2 -2 1 0 1 3 4 4 3 2 1 0 -1 -2 -2
-1 -1 1 1 1 0 1 -0 -2 -1 -1 -1 0 1 2 1 2 1 1 -1 -2 -0 0 -1 -0 -3 -5 -4 -0 1 1 1 0 -0 1 1 0 0 -0 -1 -1 -1 -2 -2
-1 -0 1 -0 -0 0 -1 -2 -2 -2 -2 -1 -0 -0 -1 0 2 -1 -1 1 -1 -1 0 0 -2 -4 -4 -1 0 0 -0 -0 -0 -1 -1 -1 -1 -0 -1 -1 -1 -3 -3 -4
-1 -2 -2 -2 -1 1 -0 -1 -1 -2 -1 -2 -1 -1 1 0 -1 -1 -0 -1 -1 2 -1 -3 -4 -1 -1 -1 -2 -2 -2 -2 -2 -2 -1 -1 -1 -3 -3 -4 -5 -5 -3 -2
-2 -3 -3 -3 -1 -1 -1 -2 -2 -2 -1 1 -2 -0 -2 -2 -2 -1 -2 0 0 -2 -2 -2 -1 -2 -2 -3 -3 -3 -3 -3 -3 -3 -2 -3 -3 -2 -1 -2 -2 -7 -10 -12

GFSNW_850_dewp_249.txt.gz
Dewpoint
-14 -14 -14 -7 -4 -2 -1 -0 2 -0 -0 3 2 1 0 -1 -2 -3 -3 -2 -2 -2 -3 -3 -4 -5 -6 -9 -9 -6 3 5 7 5 2 1 2 3 3 6 9 7 7 6
-14 -14 -14 -6 -3 -2 -1 -0 -0 -1 2 2 2 1 0 -1 -1 -2 -1 -1 -3 -3 -2 -1 -3 -4 -6 -7 -7 -5 1 6 6 3 1 3 5 5 5 5 5 9 10 8
-14 -15 -15 -9 -3 -2 -1 1 1 0 1 2 1 1 1 2 -1 -1 -1 0 -0 1 0 -1 -1 -2 -3 -5 -7 -6 -0 3 3 5 3 3 5 5 2 4 8 9 9 8
-13 -13 -14 -15 -7 -2 -1 -0 0 0 1 0 1 1 -1 -0 1 -1 -1 -0 -1 0 1 0 -0 -1 -1 -3 -4 -4 -3 1 -1 -0 2 3 1 1 2 2 4 7 6 7
-12 -12 -14 -15 -13 -8 -1 0 -0 0 -0 -0 -0 -0 1 1 1 -1 -1 1 -0 -1 0 -0 1 -1 -1 -1 -3 -1 1 2 2 2 1 1 2 2 3 3 2 2 2 4
-11 -12 -13 -16 -13 -8 -2 -1 -1 0 -1 -1 0 0 -0 -1 -1 -1 -1 -1 -1 -1 -1 -2 -2 -3 -2 -1 0 0 2 3 3 3 0 2 4 3 -0 -1 -3 -0 3 1
-10 -11 -13 -15 -11 -5 -3 -2 -2 -1 -1 -1 -1 -1 -2 -0 0 -0 -2 -2 -1 -2 -3 -3 -3 -2 -1 -1 -0 0 1 2 4 3 2 4 -1 -4 -5 -3 -3 -4 -3 -2
-10 -11 -13 -10 -7 -5 -3 -4 -1 -1 -1 -2 -2 -1 -2 -2 -2 -1 -1 -1 -2 -3 -2 1 3 2 3 1 1 1 -0 1 3 4 2 1 1 -4 -3 -3 -4 -6 -6 -3
-9 -12 -9 -5 -4 -4 -3 -2 -2 -1 -1 -1 -1 -1 -2 -1 -1 -2 -3 -4 -3 -2 0 2 3 2 2 1 1 -0 0 1 2 1 3 3 -2 -5 -8 -6 -2 -7 -6 -3
-10 -12 -13 -9 -8 -6 -3 -3 -2 -1 -1 -1 -2 -0 1 -2 -2 -1 -2 -2 -1 -2 1 3 3 3 3 3 3 -2 -0 1 3 3 3 1 -3 -5 -7 -0 -1 1 2 4
-10 -12 -13 -10 -6 -4 -1 -1 -1 -1 -1 -1 -1 -1 -1 -2 -1 -1 -1 -0 -1 -0 2 3 0 1 0 1 -1 -1 -0 -0 1 1 3 3 -3 -3 -1 -3 -2 -0 -0 1
-11 -13 -12 -8 -4 -1 -0 -0 -0 0 -0 -0 -1 -1 -2 -1 -2 -2 -0 -1 1 2 2 2 1 2 -0 -0 1 -3 0 -1 1 1 0 -3 -4 -4 -5 -3 -3 -3 -2 -2
-12 -13 -10 -7 -2 -1 -0 0 0 1 0 0 0 0 -1 -1 -1 -1 -0 -1 -1 -1 0 2 2 3 1 2 1 -0 -2 -4 -1 -1 -3 -4 -3 -3 -3 -3 -3 -4 -4 2
-13 -13 -9 -6 -2 0 1 1 1 1 0 -0 0 -0 0 -0 -0 -0 -1 -0 1 1 1 2 1 3 1 0 -1 -1 -3 -2 -1 -2 -4 -5 -5 -4 -4 -4 -4 -3 -4 -2
-13 -11 -8 -5 -0 1 1 1 1 2 1 0 -0 0 -1 -0 -0 1 1 1 1 2 1 1 2 1 2 2 1 2 -0 -1 -1 -1 -4 -2 -3 -3 -3 -2 -3 -3 -4 -2
-13 -9 -8 -3 0 1 1 1 1 1 2 0 1 1 0 1 1 2 2 2 2 2 1 1 2 1 1 2 1 -3 -3 -4 -3 -3 -4 -3 -4 -4 -4 -4 -4 -4 -3 -1
-10 -8 -3 -0 0 1 1 1 1 1 1 0 1 0 1 2 2 2 2 2 2 1 -0 -0 1 1 2 2 3 -2 -3 -4 -4 -5 -5 -5 -6 -5 -6 -5 -2 -1 1 0
-7 -4 -1 0 0 1 1 1 1 1 1 1 1 1 -0 1 1 1 1 1 1 0 0 0 1 0 1 2 -1 -3 -4 -4 -5 -5 -5 -5 -5 -5 -5 -4 -3 -3 -1 0
-4 -1 1 0 0 1 1 1 0 0 1 1 1 -1 -1 1 1 0 0 0 0 0 0 1 -0 -1 -0 -1 -3 -5 -5 -5 -5 -4 -4 -4 -4 -4 -3 -3 -3 -2 1 2
-3 -1 -0 -0 0 1 1 1 0 1 1 2 -0 0 1 0 1 1 -0 -1 -1 1 -1 -1 -1 -0 -3 -4 -4 -4 -2 -2 -2 -1 -1 -2 -3 -3 -1 -1 -1 -0 2 2
-2 -1 -1 -1 0 1 1 0 1 0 0 1 1 -0 -1 -0 -0 1 -1 0 -1 1 -0 -0 0 1 -1 -4 -4 -3 -2 -3 -2 -2 -1 0 -1 1 2 1 1 3 4 2
-2 -2 -2 -1 -0 -1 0 0 0 1 -1 -1 -1 0 0 -0 -0 -1 -0 1 -2 1 -0 1 -0 -1 -5 -5 -3 -3 -3 -1 -0 -1 -2 0 1 0 3 3 3 3 3 2
-2 -2 -2 -2 -1 0 1 0 1 0 0 1 1 1 -0 0 1 -1 -2 -1 -2 -2 -1 0 -1 -2 -3 -3 -2 -2 -0 -0 0 1 1 3 3 2 2 1 1 1 0 -0
-2 -2 -1 -0 -0 -0 -0 -0 -1 -0 -0 1 -0 1 0 1 -1 -1 -1 -1 -1 -1 -2 -1 -2 -2 -0 -1 -0 -1 -1 -1 -0 -1 0 1 1 0 -0 -0 -0 -0 -1 -2
-2 -1 0 -0 0 1 0 -1 -1 -1 -0 -1 -0 -0 -0 0 0 -0 -1 -1 -2 -2 -2 -0 -1 -1 -2 -2 -2 -2 -2 -2 -2 -2 -2 -2 -1 -2 -2 -2 -2 -2 -2 -3
-1 -1 0 -1 -0 0 -0 -1 -1 -1 -1 -2 -1 0 0 -1 -0 -1 -2 -1 -2 0 -1 -1 -2 -2 -3 -3 -3 -3 -3 -3 -3 -3 -3 -3 -3 -3 -4 -3 -3 -3 -4 -5
-1 -1 -3 -1 -1 -0 -1 -2 -2 -1 -0 1 0 0 -0 -1 -0 0 -1 -0 -0 -1 -2 -2 -3 -3 -3 -3 -4 -4 -4 -4 -4 -4 -3 -3 -3 -3 -4 -5 -5 -6 -6 -6

GFSNW_850_dewp_252.txt.gz
Dewpoint
-12 -14 -11 -12 -5 -2 -3 0 -1 1 -1 1 0 -2 1 -2 -2 -2 -1 -1 -1 -0 -1 -0 -1 -3 -3 -6 -6 -4 -1 3 6 3 -0 -0 1 1 5 7 8 9 10 8
-12 -13 -13 -11 -4 -2 -2 -1 -1 1 -0 0 1 2 -1 -2 -2 -2 -2 -0 -2 -2 -0 2 -1 -2 -3 -3 -2 -4 -4 2 2 -1 -1 2 5 -0 3 5 7 8 9 9
-11 -13 -12 -8 -3 -2 -1 -1 -3 -0 2 1 -1 -0 1 2 1 -1 -2 -2 -2 0 1 -0 1 -0 -2 -3 -3 -3 -1 1 1 1 -1 -2 0 -0 0 2 6 4 3 1
-12 -13 -13 -11 -3 -2 -1 -0 -0 -1 -0 -0 1 1 1 -0 1 -1 -0 1 0 0 1 -0 0 -1 -1 -2 -3 -3 -1 1 0 -0 -0 -0 0 1 0 1 1 4 1 0
-11 -13 -13 -13 -11 -2 -1 -1 -1 -1 -0 -2 -0 -1 -0 0 -0 0 1 0 -0 0 2 1 1 -0 -1 -1 -2 -1 -0 2 1 1 -1 -1 0 -1 -1 -1 0 3 2 2
-10 -12 -12 -12 -9 -8 -2 -2 -1 -0 -2 -1 -1 -2 -1 -2 -2 -2 -3 -2 -0 -0 -1 -1 -2 -1 -1 -1 0 0 1 1 2 3 -0 0 2 -2 -2 -1 -1 0 1 -2
-9 -10 -11 -11 -10 -9 -9 -4 -2 -2 -2 -2 -2 -3 -3 -2 -2 -1 -2 -2 -0 -1 -2 -1 -2 -2 -1 -1 -1 -1 1 1 2 3 2 3 -2 -4 -4 -3 -3 -4 -5 -5
-7 -10 -11 -10 -12 -9 -7 -7 -2 -3 -2 -4 -4 -4 -3 -3 -3 -3 -3 -3 -1 0 1 2 2 -1 -0 0 1 0 -0 1 2 3 2 -1 -2 -4 -4 -4 -4 -6 -6 -6
-6 -9 -10 -11 -12 -9 -4 -6 -4 -2 -2 -3 -4 -4 -3 -1 -2 -2 -3 -3 -4 -4 -1 2 3 1 -1 -1 0 -0 0 1 2 -0 3 2 -4 -7 -8 -5 -0 -5 -6 -7
-4 -7 -9 -11 -11 -7 -4 -4 -4 -2 -2 -2 -3 -2 -2 -3 -3 -1 -2 -2 -3 -3 0 -0 1 1 0 1 1 -2 1 1 3 3 3 1 -3 -5 -5 0 -1 -6 -2 1
-4 -8 -9 -11 -12 -12 -7 -8 -8 -4 -2 -2 -2 -3 -2 -3 -2 -1 -2 -2 -3 -2 -1 -1 -1 2 1 2 1 -0 -1 -0 1 1 2 2 -5 -2 -0 -3 -6 -5 -4 -3
-5 -8 -9 -10 -12 -14 -8 -5 -5 -2 -1 -1 -1 -1 -2 -2 -3 -3 -3 -2 -2 -0 2 1 -1 0 -1 -1 0 -4 -0 -2 -2 -1 -1 -4 -6 -5 -6 -5 -3 -3 -2 -3
-3 -6 -9 -11 -13 -13 -8 -4 -2 -1 -1 -0 -0 -0 -0 -1 -1 -1 -1 -1 -2 -2 -2 0 1 2 1 2 1 -1 -2 -4 -1 -2 -3 -4 -4 -5 -6 -6 -5 -4 -3 -5
-3 -4 -8 -12 -13 -10 -7 -3 -2 -1 -1 -1 -1 -1 -1 -2 -1 -1 -1 -1 -1 -0 -0 0 1 1 1 1 -1 -0 -2 -2 -1 -1 -3 -4 -4 -4 -5 -5 -5 -5 -4 -4
-3 -3 -7 -13 -13 -8 -5 -2 -1 -0 0 0 0 0 -0 -1 -1 -0 0 0 0 0 0 0 1 1 1 1 1 1 -1 -1 -0 -1 -3 -3 -4 -5 -5 -5 -4 -4 -3 -3
-3 -4 -9 -13 -9 -5 -1 -0 -0 1 1 1 0 0 -1 -1 1 1 0 0 0 1 -0 0 1 1 1 2 1 -2 -2 -2 -3 -2 -3 -3 -3 -3 -4 -3 -4 -4 -5 -4
-4 -7 -12 -11 -7 -2 -1 0 1 1 1 0 0 0 1 0 2 2 1 1 1 1 0 -0 0 0 1 1 2 -2 -3 -3 -3 -3 -3 -2 -3 -3 -4 -5 -6 -6 -6 -6
-5 -11 -11 -8 -4 -1 -0 0 0 1 1 -0 1 -0 -1 0 1 1 1 1 0 -0 0 -0 0 1 1 2 -1 -3 -3 -3 -4 -4 -4 -4 -5 -5 -5 -5 -5 -5 -5 -5
-5 -10 -7 -2 0 0 0 0 1 0 1 -0 -0 -1 -3 0 0 0 0 0 0 -0 -0 -0 0 -2 1 -0 -1 -2 -3 -4 -5 -2 -1 -2 -3 -3 -3 -3 -3 -3 -3 -3
-8 -6 -3 -1 -0 0 1 1 1 0 0 1 1 -1 0 -0 0 -0 -1 -0 -0 1 -1 -2 0 -1 -2 -3 -3 -3 -2 -2 -2 -1 -0 -0 0 -0 -1 -1 0 -2 -2 -0
-5 -2 -2 -1 -0 0 0 0 0 -0 -0 0 1 -1 -0 -0 -1 -0 -1 -1 -1 0 -2 -1 0 1 -2 -5 -4 -4 -3 -2 -1 -1 -1 -0 1 0 -1 2 2 2 2 2
-3 -3 -3 -2 -1 -1 -0 0 -0 1 -0 -1 -1 -1 -1 -1 -2 -3 -1 -0 -2 0 -0 1 1 -1 -3 -2 -1 -1 -0 -0 -1 -2 -1 -0 2 3 3 3 3 3 3 3
-4 -2 -3 -2 -2 -1 0 0 1 -0 -2 1 1 0 -0 1 1 -1 -1 -1 -1 -2 1 0 -2 -2 -1 -2 -2 -2 -2 -2 -2 -2 -1 -1 -1 0 0 0 -0 -0 -0 -1
-3 -2 -2 -1 -1 -1 0 -1 -2 -2 -0 1 -1 0 -1 -0 -1 -1 -0 -2 -2 -2 -2 -2 -2 -2 -2 -2 -3 -3 -3 -3 -3 -3 -2 -3 -2 -2 -2 -2 -2 -2 -3 -3
-3 -2 -1 -1 -2 -1 -0 -0 -1 -0 0 -0 -1 -0 -1 -1 -0 -0 -0 -0 0 -2 -3 -3 -2 -2 -3 -3 -4 -4 -4 -4 -4 -4 -4 -4 -4 -4 -4 -4 -4 -4 -4 -3
-2 -2 -1 -0 0 0 -0 -1 -0 0 -0 -2 -2 0 -0 0 -0 -0 -1 -0 -2 -3 -2 -2 -3 -3 -3 -4 -4 -4 -4 -4 -4 -4 -5 -5 -5 -5 -5 -4 -4 -4 -4 -4
-2 -2 -1 -1 -0 -0 -1 -1 -1 -1 -2 -0 -1 0 -0 -1 1 1 -1 -2 -1 -2 -2 -3 -3 -4 -4 -4 -4 -4 -4 -4 -5 -5 -5 -5 -4 -4 -5 -5 -5 -6 -7 -8

GFSNW_850_dewp_255.txt.gz
Dewpoint
-4 -7 -11 -11 -11 -3 -2 -2 -2 1 -1 -1 -1 -4 -1 -2 -2 -2 -2 -2 -1 -1 0 0 -1 -3 -2 -2 -2 -2 -4 1 4 1 -2 -3 -1 3 5 6 6 7 8 6
-5 -11 -12 -12 -8 -2 -2 -3 -0 2 1 -3 -1 0 -3 -3 -2 -2 -2 -1 -1 -1 0 1 1 -0 -2 -3 -2 -1 -1 1 2 -1 -2 -1 4 -1 -2 4 6 5 7 5
-7 -11 -11 -12 -6 -2 -2 -1 -2 0 1 0 -3 -1 1 0 1 -1 -3 -2 -2 -1 -0 -0 1 0 -2 -4 -3 -3 -1 2 2 2 -1 -2 -1 -1 0 1 5 3 4 3
-7 -10 -11 -11 -5 -2 -1 -1 -2 -2 0 0 1 -1 -1 -1 -0 -1 -0 0 -0 -0 1 0 0 -1 -2 -2 -2 -2 -2 1 -0 -1 -1 -0 0 0 -1 0 0 4 1 1
-8 -10 -11 -9 -4 -3 -1 -2 -2 -0 -2 -2 -1 -1 1 -1 -2 0 1 1 -1 0 2 1 0 -1 -0 0 -1 -1 -1 1 1 2 -0 -1 0 -1 -1 -1 -1 -1 -1 -1
-9 -10 -11 -12 -10 -3 -1 -2 -1 -2 -3 -2 -1 -0 -1 -2 -2 -2 -2 -2 -1 -0 -1 -1 -1 -1 -1 -1 0 0 1 2 2 2 -1 -0 1 -2 -1 -2 -2 -2 -1 -3
-3 -8 -7 -7 -10 -11 -4 -3 -2 -3 -4 -2 -2 -3 -3 -3 -3 -2 -3 -2 -1 -1 -1 -1 -0 -0 -0 -1 -1 -0 1 1 1 1 1 2 -3 -6 -5 -4 -4 -4 -4 -3
-3 -7 -7 -7 -8 -9 -9 -8 -4 -3 -7 -4 -4 -4 -3 -3 -4 -3 -3 -4 -6 -6 -3 1 2 -1 -2 -1 -0 -0 -0 0 2 3 1 -1 -2 -5 -4 -3 -5 -6 -6 -7
-3 -6 -7 -8 -8 -9 -10 -9 -7 -3 -4 -5 -6 -5 -4 -3 -3 -4 -3 -3 -5 -3 -1 -1 1 1 1 -1 -1 -0 -0 0 2 1 3 1 -5 -7 -7 -6 -1 -6 -7 -5
-2 -4 -7 -7 -7 -9 -10 -8 -6 -2 -2 -4 -4 -3 -3 -4 -3 -3 -3 -4 -3 -2 0 -0 -1 -1 -1 -0 0 -3 1 1 2 2 2 0 -3 -5 -6 -0 -3 -8 -7 -6
-1 -3 -5 -7 -8 -9 -6 -4 -4 -3 -3 -3 -4 -4 -3 -3 -3 -2 -3 -2 -3 -3 -3 -4 -3 -2 -1 -0 -3 -1 -1 -0 2 2 2 2 -5 -4 -1 -4 -7 -7 -6 -5
-2 -2 -3 -6 -8 -9 -9 -8 -7 -5 -3 -4 -6 -3 -3 -4 -4 -4 -3 -3 -3 -2 -0 -1 -2 -1 -2 -0 1 -3 1 -1 -1 0 -1 -4 -5 -6 -6 -5 -4 -4 -3 -4
-2 -2 -5 -8 -9 -10 -9 -10 -9 -4 -2 -2 -2 -1 -3 -2 -2 -2 -2 -2 -2 -3 -3 0 -0 -1 -0 -0 -1 -1 -2 -4 -2 -2 -4 -5 -6 -6 -6 -6 -5 -5 -5 -5
-2 -2 -3 -5 -8 -10 -10 -10 -9 -4 -3 -2 -2 -3 -3 -3 -2 -1 -1 -2 -1 -1 -1 -0 0 1 -1 -1 -2 -1 -2 -3 -1 -1 -3 -3 -3 -4 -4 -4 -4 -5 -5 -5
-3 -3 -3 -3 -5 -10 -11 -9 -7 -5 -3 -1 -1 -0 -1 -1 -1 -1 -0 -0 -1 -0 -0 -1 0 -0 -0 -1 -1 -0 -3 -1 0 -0 -3 -2 -3 -4 -3 -3 -3 -3 -4 -4
-5 -4 -3 -3 -3 -10 -7 -3 -9 -7 -5 -1 -0 -1 0 -1 -1 -1 -0 -0 -0 -0 -0 -0 0 0 1 2 1 -3 -3 -3 -3 -1 -2 -1 -2 -2 -2 -2 -3 -3 -3 -3
-5 -5 -4 -3 -5 -8 -4 -3 0 -0 -0 -1 -0 -0 0 1 1 1 1 1 0 0 0 -0 0 1 1 1 1 -3 -3 -3 -3 -3 -2 -2 -2 -2 -4 -3 -3 -4 -4 -4
-5 -4 -4 -4 -9 -8 -5 -10 -10 -6 -1 -1 0 -0 -1 0 1 0 1 0 0 0 -0 -1 -0 0 0 1 -1 -2 -3 -3 -3 -4 -4 -3 -3 -2 -2 -2 -2 -2 -2 -2
-5 -4 -5 -6 -7 -2 -5 -8 -2 -1 -0 -0 -0 -0 -3 1 0 1 1 0 0 -0 -0 -0 -0 0 1 -1 -1 -2 -3 -2 -2 -1 -1 -2 -1 -2 -2 -3 -3 -2 -2 -2
-4 -4 -6 -2 -1 -0 0 1 1 0 -0 -0 0 -1 -1 -0 -0 -0 -1 -0 -0 0 -0 -1 0 -1 -3 -3 -3 -2 -1 -0 -0 -0 -1 -1 -1 -1 -1 -0 0 1 0 -1
-4 -4 -3 -2 -1 -1 -0 -1 -1 -1 -0 -0 -0 -1 -0 -1 -0 0 -2 -1 -1 -0 -2 -1 0 -0 -2 -2 -2 -2 -2 -2 -1 -2 -1 -2 -2 -2 -2 -0 1 1 1 3
-4 -4 -4 -3 -2 -2 -1 -0 -0 0 -1 -1 -0 -1 -1 -1 -2 -2 -2 -1 -1 -0 -2 -0 -0 -2 -1 -1 -3 -3 -3 -3 -3 -3 -3 -3 -2 -2 -2 -1 -1 -1 -1 -0
-5 -3 -3 -3 -3 -2 -1 0 0 -0 -2 -1 -0 -1 -0 -0 -0 -1 -0 1 0 -1 1 -0 -2 -2 -2 -2 -3 -3 -3 -4 -4 -4 -3 -3 -4 -3 -3 -3 -3 -3 -3 -3
-4 -3 -3 -2 -1 -2 -1 -2 -2 -2 -1 0 -1 -1 -1 0 -0 -1 0 -2 -2 -2 -2 -2 -2 -2 -3 -3 -4 -4 -4 -4 -4 -4 -5 -5 -5 -5 -5 -5 -5 -5 -5 -5
-3 -2 -2 -2 -3 -2 -1 -1 -1 -0 -0 -0 -0 -1 -1 -2 -1 -1 -1 -2 -0 -1 -3 -4 -3 -3 -3 -4 -4 -5 -5 -5 -5 -5 -5 -5 -5 -5 -6 -5 -5 -4 -4 -4
-3 -3 -1 -2 -1 -1 -1 -0 -1 0 -0 -1 -1 -1 -1 -0 -1 -1 -1 -0 -1 -4 -2 -3 -3 -3 -4 -4 -4 -5 -5 -5 -5 -5 -5 -5 -5 -5 -5 -4 -4 -4 -4 -4
-2 -3 -2 -2 -1 -1 -0 -1 -0 -0 -1 -0 -1 -0 -1 -0 0 0 -1 -1 -1 -2 -3 -3 -3 -4 -4 -5 -4 -5 -5 -5 -5 -5 -5 -6 -6 -6 -8 -8 -7 -8 -8 -8

GFSNW_850_dewp_258.txt.gz
Dewpoint
-4 -4 -5 -10 -12 -4 -3 -2 -2 -1 -2 -2 -3 -0 -1 -2 -2 -3 -2 -2 -1 0 0 0 0 -1 -2 -3 -2 -1 -2 -0 2 -1 -2 -3 -3 1 2 4 4 5 7 5
-2 -4 -8 -12 -11 -3 -3 -3 1 -1 1 -2 -1 -1 -2 -3 -3 -3 -2 -1 -1 -2 -0 -1 -0 -0 -2 -3 -3 -1 -2 -0 1 -2 -2 -2 3 1 1 4 4 4 5 2
-3 -5 -11 -11 -9 -2 -3 -3 -3 1 1 -1 -2 -2 -0 -2 0 -1 -3 -2 -3 -2 -1 -2 -1 0 -2 -3 -3 -2 0 1 -0 0 -0 -0 1 1 -0 1 2 2 2 1
-4 -7 -12 -12 -8 -2 -1 -2 -2 -1 0 -0 -1 -3 -1 0 -0 -0 -1 -1 -2 -1 0 0 1 -1 -2 -2 -3 -1 -2 1 0 -0 -1 -1 -0 1 0 0 -0 2 -0 -1
-2 -8 -12 -12 -7 -2 -1 -2 -2 -3 -2 -1 -0 1 0 0 -1 -0 0 0 -1 -0 0 -1 -0 -1 -1 -0 -2 -1 -1 1 1 2 -0 -0 1 -1 -1 -1 -1 -2 -2 -2
-2 -7 -11 -11 -5 -3 -1 -2 -2 -3 -3 -2 -2 -2 -1 -2 -3 -3 -3 -2 -1 -1 -2 -2 -1 -1 -0 -1 0 -0 0 1 1 1 -1 -0 1 -1 -1 -2 -2 -2 -0 -3
-3 -9 -11 -12 -9 -3 -2 -2 -3 -4 -6 -3 -3 -3 -2 -3 -3 -2 -4 -4 -2 -2 -2 -5 -4 -3 -0 -0 -1 -1 1 1 0 1 -0 1 -4 -6 -5 -3 -3 -4 -4 -4
-2 -6 -10 -11 -12 -9 -3 -3 -3 -4 -8 -3 -3 -3 -4 -5 -5 -3 -4 -5 -6 -6 -3 -2 -1 -2 -1 -1 -0 0 -0 1 2 2 1 -2 -3 -5 -4 -3 -4 -5 -4 -5
-1 -1 -7 -8 -9 -10 -10 -7 -5 -5 -6 -6 -6 -5 -4 -4 -4 -5 -4 -6 -6 -3 -2 -3 -2 -2 -2 -2 -2 -1 -0 -0 2 1 2 -0 -6 -6 -7 -6 -2 -6 -6 -6
-1 -1 -4 -7 -8 -8 -9 -9 -7 -5 -5 -7 -5 -5 -5 -5 -4 -5 -4 -4 -3 -2 -2 -1 -2 -4 -2 -2 -1 -2 1 0 2 1 2 -0 -3 -6 -6 -0 -2 -7 -7 -7
-1 -1 -3 -6 -7 -6 -8 -9 -8 -6 -4 -5 -4 -5 -5 -4 -4 -4 -2 -3 -4 -2 -1 -2 -2 -1 -2 -2 -3 -3 -1 0 1 1 2 1 -5 -4 -2 -4 -6 -6 -6 -5
-1 -1 -2 -4 -5 -6 -7 -7 -7 -3 -3 -4 -5 -7 -6 -5 -6 -5 -4 -4 -3 -2 -3 -3 -4 -2 -3 -1 1 -4 -1 -3 -1 -0 -1 -4 -5 -5 -5 -5 -5 -5 -5 -5
-1 -1 -2 -2 -2 -4 -8 -8 -7 -3 -3 -6 -6 -10 -12 -8 -8 -6 -3 -2 -3 -4 -2 -1 -1 -1 -2 -2 -1 -1 -3 -3 -1 -2 -4 -5 -5 -5 -5 -5 -5 -5 -4 -4
-2 -2 -2 -2 -4 -5 -8 -8 -6 -6 -4 -4 -6 -7 -3 -4 -4 -2 -3 -3 -2 -3 -2 -1 -0 -1 -2 -2 -3 -2 -3 -3 -3 -2 -4 -4 -4 -4 -4 -4 -3 -3 -3 -3
-2 -2 -2 -2 -3 -4 -7 -8 -7 -8 -6 -4 -3 -7 -11 -3 -1 -2 -1 -1 -1 -1 -1 -1 -0 -1 -1 -2 -1 -1 -3 -3 -2 -2 -5 -4 -3 -4 -3 -2 -2 -1 -2 -2
-4 -3 -3 -3 -2 -3 -4 -8 -10 -12 -10 -4 -3 -3 -2 -3 -2 -2 -1 -0 -1 -1 -1 -1 -0 -1 -0 1 -1 -5 -5 -5 -5 -4 -4 -3 -3 -3 -3 -2 -2 -2 -2 -3
-5 -5 -5 -4 -3 -3 -5 -10 -1 -1 -3 -2 -2 -2 -0 0 0 -0 -0 -0 -0 -1 -1 -1 -0 0 0 1 0 -4 -4 -3 -3 -3 -3 -2 -3 -3 -2 -2 -2 -3 -3 -4
-7 -6 -5 -5 -4 -3 -3 -6 -6 -7 -4 -5 -2 -0 -1 1 1 0 0 -0 -0 -0 -0 -1 -0 0 0 1 -2 -2 -2 -2 -2 -2 -1 -1 -1 -2 -2 -3 -2 -2 -2 -1
-7 -5 -4 -4 -3 -4 -5 -8 -10 -9 -6 -1 -1 -1 -2 0 0 0 0 -0 -1 -0 -1 -0 -0 -1 -0 -1 -1 -2 -2 -0 -0 -1 -2 -3 -2 -2 -2 -2 -2 -2 -2 -1
-6 -5 -4 -5 -5 -6 -7 -1 -1 -2 -2 -2 -1 -1 -1 0 0 -0 -0 -0 -1 -0 -0 -1 -0 -1 -3 -4 -3 -1 -2 -3 -3 -3 -3 -3 -3 -3 -3 -2 -2 -2 -2 -2
-6 -4 -4 -5 -2 -2 -2 -1 -1 -1 -1 -1 -0 -1 -0 -1 -2 -1 -2 -1 -2 -0 -2 -2 -1 -1 -2 -1 -2 -3 -3 -3 -3 -3 -4 -3 -3 -3 -4 -4 -4 -4 -4 -4
-6 -5 -4 -4 -4 -2 -2 -1 -1 -0 -1 -0 -0 -1 -1 -1 -1 -1 -2 -2 -1 -1 -3 -2 -1 -3 -1 -2 -3 -3 -3 -4 -4 -4 -4 -4 -4 -5 -5 -5 -5 -5 -5 -5
-5 -4 -4 -3 -3 -3 -1 -1 1 -1 -2 -1 -1 -1 -0 -0 -1 -1 -2 -0 -0 -2 0 -1 -3 -2 -3 -3 -4 -4 -4 -5 -5 -5 -5 -5 -6 -6 -6 -6 -6 -6 -6 -6
-5 -4 -4 -3 -4 -3 -2 -2 -3 -3 -2 -1 -0 -1 0 0 0 -0 0 -1 -2 -0 -0 -2 -2 -3 -3 -4 -4 -5 -5 -5 -5 -5 -5 -6 -6 -7 -7 -7 -6 -6 -6 -6
-5 -3 -4 -3 -4 -3 -3 -2 -2 -2 -1 -0 -1 -1 -1 -1 -1 -1 -2 -1 -1 -3 -3 -5 -3 -3 -4 -4 -5 -5 -5 -5 -6 -6 -6 -6 -6 -6 -6 -6 -6 -6 -5 -5
-6 -5 -2 -3 -2 -2 -2 -1 -1 -0 -0 -1 -1 -0 -0 -1 -2 -0 -1 -1 -3 -4 -3 -3 -3 -4 -4 -5 -5 -5 -5 -6 -6 -6 -5 -5 -5 -6 -6 -5 -5 -5 -6 -6
-5 -5 -3 -3 -2 -1 -1 -2 -1 0 -0 1 -0 -1 -1 -1 -1 -0 -2 -2 -2 -3 -3 -3 -4 -4 -5 -5 -5 -5 -5 -5 -5 -5 -5 -6 -8 -9 -9 -8 -7 -8 -8 -8

GFSNW_850_dewp_264.txt.gz
Dewpoint
-2 -4 -6 -6 -11 -8 -4 -0 0 -2 -2 -1 1 4 -0 -2 -4 -4 -3 -2 -2 -2 -3 -2 -1 -1 -3 -5 -5 -4 -4 -2 -2 -3 -5 -6 -5 -4 -3 3 3 3 4 1
-2 -4 -5 -6 -11 -8 -1 -0 -0 -0 -2 3 1 -1 -2 -3 -4 -4 -4 -2 -2 -3 -3 -2 -2 -1 -3 -5 -5 -3 -4 -2 -2 -6 -6 -3 -3 -3 -3 -0 2 -1 3 -1
-1 -4 -4 -7 -13 -5 -1 -0 2 0 -0 -2 -1 -0 -3 -3 -2 -4 -5 -3 -4 -4 -3 -4 -2 -2 -2 -4 -5 -2 -2 -4 -5 -3 -6 -2 -1 -1 -2 -2 2 -1 -3 -4
-1 -3 -4 -9 -12 -4 -2 -1 1 -2 2 1 -2 -4 -4 -4 -2 -2 -3 -4 -5 -5 -2 -3 -2 -3 -3 -3 -3 -2 -2 -2 -3 -3 -4 -5 -4 -6 -5 -3 -3 -1 -3 -5
-1 -2 -5 -12 -8 -3 -1 -2 -0 -1 -4 -4 -3 -2 -3 -5 -3 -3 -2 -4 -3 -3 -2 -3 -1 -2 -3 -3 -3 -2 -2 -2 -2 -1 -4 -4 -3 -5 -5 -5 -6 -7 -8 -7
-0 -1 -7 -13 -7 -3 -1 -4 -3 -1 -2 -3 -2 -2 -3 -4 -5 -2 -3 -3 -2 -2 -2 -3 -3 -2 -2 -3 -3 -2 -2 -2 -2 -1 -5 -4 -1 -4 -5 -5 -6 -6 -4 -7
0 -3 -9 -13 -10 -3 -3 -4 -1 -2 0 -2 -2 -3 -3 -3 -4 -3 -3 -4 -4 -2 -3 -4 -4 -4 -5 -5 -4 -3 -2 -2 -1 1 -2 1 -5 -7 -9 -8 -8 -8 -8 -8
-0 -3 -9 -13 -12 -4 -4 -4 -3 -3 0 -4 -4 -4 -4 -3 -4 -4 -4 -5 -6 -3 -5 -5 -1 -1 -0 -1 -5 -5 -3 -1 1 1 -0 -4 -6 -7 -7 -6 -6 -10 -10 -10
-0 -2 -7 -12 -11 -5 -4 -4 -5 -6 -3 -2 -6 -5 -6 -5 -6 -5 -6 -5 -3 -4 -5 -3 -3 -3 -2 -2 -1 -1 -2 -1 1 1 2 -1 -4 -7 -8 -9 -6 -10 -10 -9
-0 -2 -8 -11 -10 -6 -4 -4 -5 -5 -4 -7 -5 -7 -6 -7 -6 -6 -6 -3 -2 -3 -3 -1 -1 -1 -5 -4 -4 2 1 1 2 2 2 -2 -8 -8 -7 -3 -5 -8 -6 -6
-0 -3 -9 -10 -11 -10 -6 -6 -9 -7 -6 -5 -6 -5 -5 -5 -6 -5 -1 -1 -1 -1 -1 -1 -2 -1 -4 -5 -9 -8 -1 0 1 0 2 0 -9 -8 -5 -6 -5 -6 -6 -6
-0 -2 -5 -7 -8 -9 -9 -10 -11 -11 -6 -4 -9 -5 -4 -6 -6 -7 -5 -4 -3 -3 -1 -1 -2 -1 -2 -4 -2 -6 -2 -4 -3 -3 -4 -8 -8 -7 -7 -6 -6 -5 -5 -5
-2 -1 -1 -5 -6 -6 -8 -9 -9 -9 -6 -5 -3 -5 -7 -9 -9 -5 -4 -4 -4 -3 -0 -2 -1 1 -2 -1 -1 -3 -5 -6 -2 -3 -6 -7 -6 -6 -6 -5 -5 -5 -4 -4
-2 -1 -1 -3 -4 -6 -7 -6 -8 -8 -7 -3 -4 -9 -9 -11 -10 -7 -4 -6 -3 -3 -3 -2 -1 -1 -4 -3 -4 -4 -5 -5 -4 -3 -5 -5 -6 -5 -5 -4 -4 -3 -3 -3
-1 -1 -1 -2 -3 -3 -5 -5 -7 -8 -5 -4 -4 -6 -10 -5 -4 -5 -4 -3 -4 -2 -1 -0 -0 -3 -2 -3 -3 -1 -5 -4 -2 -2 -5 -5 -5 -4 -3 -3 -2 -2 -2 -2
-1 -1 -1 -2 -2 -2 -3 -5 -6 -5 -5 -5 -3 -5 -5 -2 -2 -2 -2 -3 -3 -2 -2 -2 -2 -3 -2 1 -1 -5 -6 -6 -5 -5 -5 -4 -3 -2 -2 -2 -2 -2 -3 -3
-2 -2 -2 -2 -2 -3 -4 -3 -5 -4 -3 -4 -4 -2 -1 -1 -1 -1 -1 -1 -1 -2 -2 -1 -2 -2 -1 1 0 -5 -5 -6 -5 -3 -2 -2 -3 -2 -2 -3 -3 -3 -3 -3
-3 -2 -2 -2 -3 -3 -3 -3 -5 -4 -4 -5 -3 -3 -1 -1 -1 -1 -1 -1 -1 -1 -1 -1 -0 -2 0 1 -5 -5 -4 -2 -2 -2 -2 -2 -3 -3 -4 -4 -4 -4 -5 -5
-4 -3 -3 -3 -3 -3 -3 -4 -4 -5 -3 -4 -4 -4 -1 -0 -0 -0 -1 -1 -0 -1 -1 -0 0 -0 2 -2 -4 -3 -1 -2 -2 -2 -3 -4 -4 -4 -4 -5 -5 -5 -6 -6
-5 -4 -5 -4 -5 -4 -4 -3 -3 -4 -4 -3 -4 -6 -2 -0 0 -0 -0 -1 2 1 -0 0 1 -2 -5 -5 -4 -2 -2 -2 -3 -3 -4 -4 -4 -5 -5 -6 -6 -6 -6 -6
-6 -5 -5 -4 -4 -4 -3 -3 -3 -3 -3 -5 -5 -7 -6 -2 -2 -0 -0 1 -0 0 -1 -0 -2 -2 -4 -2 -2 -2 -3 -4 -4 -4 -4 -5 -6 -6 -6 -6 -7 -7 -7 -8
-6 -5 -5 -3 -4 -3 -3 -3 -3 -1 -4 -3 -4 -4 -7 -6 -2 -1 -0 0 -1 -1 -3 -0 -1 -3 -2 -2 -3 -3 -4 -4 -4 -5 -5 -6 -7 -7 -7 -7 -8 -7 -7 -7
-5 -5 -4 -4 -4 -3 -2 -2 -3 -2 -1 -1 -0 -0 -4 -1 -0 0 0 1 0 -3 -0 -2 -3 -2 -2 -3 -3 -4 -4 -5 -5 -5 -6 -7 -7 -7 -6 -6 -6 -6 -6 -6
-6 -4 -4 -4 -4 -6 -6 -6 -5 -3 -1 -1 -1 -0 -0 -0 -0 1 1 -1 -1 0 -0 -1 -3 -3 -3 -3 -4 -4 -5 -5 -5 -6 -7 -7 -6 -6 -6 -6 -6 -7 -7 -6
-5 -4 -5 -4 -7 -5 -4 -3 -3 -2 -1 -1 -0 0 0 1 2 1 1 0 0 -1 -0 -2 -2 -2 -3 -4 -4 -5 -5 -6 -6 -6 -6 -6 -6 -6 -6 -6 -6 -7 -7 -8
-6 -6 -5 -5 -4 -3 -3 -2 -1 -1 -1 -1 0 2 1 2 1 0 0 -1 -1 -1 -1 -2 -2 -3 -4 -4 -5 -5 -6 -6 -6 -6 -6 -6 -6 -7 -8 -9 -9 -9 -10 -10
-7 -7 -6 -5 -4 -3 -4 -2 -2 -1 0 1 1 2 0 -1 0 -1 -2 -0 -2 -2 -2 -2 -2 -3 -4 -5 -5 -6 -5 -5 -6 -6 -7 -8 -9 -9 -9 -10 -10 -10 -12 -15